Weather Roundup
Issued by NWS Chicago, IL

Home | Current Version | Previous Version | Graphics & Text | Print | Product List | Glossary On
Versions: 1 2 3 4 5 6 7 8 9 10 11 12 13 14 15 16 17 18 19 20 21 22 23 24 25 26 27 28 29 30 31 32 33 34 35 36 37 38 39 40 41 42 43 44 45 46 47 48 49 50
000
NZUS59 KLOT 222200
HRRLOT

CHICAGO AREA WEATHER ROUNDUP
NATIONAL WEATHER SERVICE CHICAGO/ROMEOVILLE IL
500 PM CDT TUE JUL 22 2014

NOTE: "FAIR" INDICATES FEW OR NO CLOUDS BELOW 12,000 FEET WITH NO
SIGNIFICANT WEATHER AND/OR OBSTRUCTIONS TO VISIBILITY.

* THESE STATIONS ARE NOT UNDER NWS QUALITY CONTROL. THEY ALSO MAY NOT
  REPORT WEATHER SUCH AS PRECIPITATION OR FOG.

ILZ005-006-012>014-019>023-222300-
NORTHEAST ILLINOIS

CITY           SKY/WX    TMP DP  RH WIND       PRES   REMARKS
OHARE          CLOUDY    88  71  57 W10       29.94R HX  94
MIDWAY         CLOUDY    89  74  60 SW15      29.95R HX  98
AURORA         MOSUNNY   88  74  63 SW12      29.95F HX  96
LANSING*       PTSUNNY   86  71  61 SW16G24   29.98R HX  91
WAUKEGAN       CLOUDY    86  73  65 SW9       29.93S HX  93
DUPAGE AIRPORT MOSUNNY   90  74  59 SW15      29.95F HX  99
WHEELING       CLOUDY    90  73  57 SW8G16    29.94F HX  98
NORTHERLY IS     N/A     87  70  56 S6          N/A  HX  92
$$

WIZ051-052-058>065-066-070>072-222300-
SOUTHEAST WISCONSIN

CITY           SKY/WX    TMP DP  RH WIND       PRES   REMARKS
MILWAUKEE      PTSUNNY   88  74  63 W13G22    29.90F HX  96
KENOSHA*       PTSUNNY   86  76  71 W15G21    29.93F HX  96
RACINE*        MOSUNNY   87  75  67 SW10G21   29.93S HX  96
WAUKESHA       PTSUNNY   84  73  70 SW8       29.93F HX  91
$$

INZ001>003-010>013-019-020-222300-
NORTHWEST INDIANA

CITY           SKY/WX    TMP DP  RH WIND       PRES   REMARKS
GARY*          PTSUNNY   90  72  55 SW14      29.97R HX  96
MICHIGAN CITY* NOT AVBL
RENSSELAER*    NOT AVBL
VALPARAISO     MOSUNNY   86  70  58 S14       29.98S HX  90
$$

LMZ740>746-222300-
SOUTHERN LAKE MICHIGAN

STATION/POSITION TIME  SKY/WX   TEMP WIND        PRES    VSBY
                                AIR  DIR/SP/G
                 (UTC)          (F)  (DEG/KT/KT) (MB)    (MI)
HARRISON CRIB    2100            84  200/ 20/ 24   N/A
BURNHAM HARBOR   2200            87  210/  9/ 19   N/A
CALUMET HARBOR   2100            86  200/ 13/ 20 1013.2R
BURNS HARBOR     2100            85  200/ 16/ 21 1014.6S
MICHIGAN CITY    2100            84  180/ 16/ 21   N/A
$$

ABBREVIATIONS USED IN REMARKS
   TC - TEMPERATURE IN CELSIUS
  WCI - WIND CHILL INDEX
   HX - HEAT INDEX
  VSB - VISIBILITY
$$


USA.gov is the U.S. government's official web portal to all federal, state and local government web resources and services.